Location: Risskov
(56.1972°N, 10.2480°E)
Time: 00:24:33
(UTC+00:00)

Cosmos 44 - Pass Details

Date: 05 July 2020
Orbit: 587 x 775 km, 65.1° (Epoch: 03 August)

Event Time Altitude Azimuth Distance (km) Brightness Sun altitude
Exits shadow 23:43:37 11° 219° (SW) 1,893 5.1 -11.0°
Maximum altitude 23:47:50 76° 135° (SE) 632 3.0 -11.0°
Drops below altitude 10° 23:52:21 10° 50° (NE) 2,011 6.4 -10.9°
Sets 23:54:42 0° 49° (NE) 2,951 7.4 -10.9°
